Tracking 19570 objects as of 22-Feb-2019
HD Live streaming from Space Station
objects crossing your sky now

IRIDIUM 36

Track IRIDIUM 36 now!
10-day predictions
IRIDIUM 36 is classified as:


NORAD ID: 24967
Int'l Code: 1997-056C
Perigee: 778.4 km
Apogee: 781.3 km
Inclination: 86.4 °
Period: 100.3 minutes
Semi major axis: 7150 km
RCS: 3.602 m2 (large)
Launch date: September 27, 1997
Source: United States (US)
Launch site: AIR FORCE WESTERN TEST RANGE (AFWTR)
aabbcc
Your satellite tracking list
Your tracking list is empty




NASA's NSSDC Master Catalog

Two Line Element Set (TLE):
1 24967U 97056C   19052.45610935  .00000068  00000-0  16540-4 0  9999
2 24967  86.3938  60.4873 0002045  85.9260 274.2170 14.35703386120990
Source of the keplerian elements: AFSPC